LU8AQL-WX Weather Reports


time (UTC)temp
C
wind
direction
speed
KPH
gust
KPH
rain 1hr
cm
rain 24hr
cm
rain mn
cm
humidity
%
barometer
mb
20260508145046 10 0 12.9 38.6 0.00 0.00 0.00 65 1005.0
20260508144045 10 0 12.9 38.6 0.00 0.00 0.00 66 1005.0
20260508143044 10 0 12.9 38.6 0.00 0.00 0.00 67 1005.0
20260508142043 10 0 12.9 38.6 0.00 0.00 0.00 67 1005.0
20260508141043 10 0 12.9 38.6 0.00 0.00 0.00 67 1005.0
20260508140042 10 260 16.1 37.0 0.00 0.00 0.00 68 1005.0
20260508135040 10 260 16.1 37.0 0.00 0.00 0.00 68 1005.0
20260508134039 9 260 16.1 37.0 0.00 0.00 0.00 70 1005.0
20260508133038 9 260 16.1 37.0 0.00 0.00 0.00 70 1005.0
20260508132037 9 260 16.1 37.0 0.00 0.00 0.00 70 1005.0
20260508131036 8 260 12.9 0.0 0.00 0.00 0.00 74 1005.0
20260508130035 8 260 12.9 0.0 0.00 0.00 0.00 74 1005.0
20260508125034 8 260 12.9 0.0 0.00 0.00 0.00 74 1005.0
20260508124033 8 260 12.9 0.0 0.00 0.00 0.00 76 1004.0
20260508123032 8 260 12.9 0.0 0.00 0.00 0.00 76 1004.0
20260508122032 8 260 12.9 0.0 0.00 0.00 0.00 77 1004.0
20260508121030 8 260 12.9 0.0 0.00 0.00 0.00 77 1004.0
20260508120030 8 260 14.5 0.0 0.00 0.00 0.00 78 1004.0
20260508115028 8 260 14.5 0.0 0.00 0.00 0.00 78 1004.0
20260508114027 8 260 14.5 0.0 0.00 0.00 0.00 79 1004.0
20260508113026 8 260 14.5 0.0 0.00 0.00 0.00 78 1004.0
20260508112025 8 260 14.5 0.0 0.00 0.00 0.00 77 1003.0
20260508111024 8 260 14.5 0.0 0.00 0.00 0.00 77 1003.0
20260508110023 8 260 14.5 32.2 0.00 0.00 0.00 76 1003.0
20260508105022 8 260 14.5 32.2 0.00 0.00 0.00 76 1003.0
20260508104022 8 260 14.5 32.2 0.00 0.00 0.00 77 1003.0
20260508103021 8 260 14.5 32.2 0.00 0.00 0.00 76 1003.0
20260508102020 8 260 14.5 32.2 0.00 0.00 0.00 76 1002.0
20260508101019 8 260 14.5 32.2 0.00 0.00 0.00 75 1002.0
20260508100018 8 260 16.1 33.8 0.00 0.00 0.00 77 1002.0
20260508095016 8 260 16.1 33.8 0.00 0.00 0.00 78 1002.0
20260508094015 8 260 16.1 33.8 0.00 0.00 0.00 79 1002.0
20260508093015 8 260 16.1 33.8 0.00 0.00 0.00 78 1001.0
20260508092014 8 260 16.1 33.8 0.00 0.00 0.00 76 1001.0
20260508091013 8 260 16.1 33.8 0.00 0.00 0.00 77 1001.0
20260508090012 8 260 14.5 0.0 0.00 0.00 0.00 77 1001.0
20260508085011 8 260 14.5 0.0 0.00 0.00 0.00 77 1001.0
20260508084010 8 260 14.5 0.0 0.00 0.00 0.00 78 1001.0
20260508083009 8 260 14.5 0.0 0.00 0.00 0.00 78 1001.0
20260508082008 8 260 14.5 0.0 0.00 0.00 0.00 78 1001.0
20260508081007 8 260 14.5 0.0 0.00 0.00 0.00 79 1001.0
20260508080006 8 240 17.7 41.8 0.00 0.00 0.00 80 1001.0
20260508075005 8 240 17.7 41.8 0.00 0.00 0.00 81 1001.0
20260508074004 8 240 17.7 41.8 0.00 0.00 0.00 82 1001.0
20260508073003 8 240 17.7 41.8 0.00 0.00 0.00 83 1001.0
20260508072002 8 240 17.7 41.8 0.00 0.00 0.00 83 1001.0
20260508071002 8 240 17.7 41.8 0.00 0.00 0.00 82 1001.0
20260508070001 9 250 16.1 0.0 0.00 0.00 0.00 81 1001.0
20260508065000 9 250 16.1 0.0 0.00 0.00 0.00 80 1001.0
20260508063959 9 250 16.1 0.0 0.00 0.00 0.00 79 1001.0
20260508062958 9 250 16.1 0.0 0.00 0.00 0.00 78 1001.0
20260508061957 9 250 16.1 0.0 0.00 0.00 0.00 78 1001.0
20260508060956 9 250 16.1 0.0 0.00 0.00 0.00 78 1002.0
20260508055955 9 240 17.7 0.0 0.00 0.00 0.00 80 1002.0
20260508054954 9 240 17.7 0.0 0.00 0.00 0.00 79 1002.0
20260508053953 9 240 17.7 0.0 0.00 0.00 0.00 79 1002.0
20260508052952 9 240 17.7 0.0 0.00 0.00 0.00 81 1002.0
20260508051951 9 240 17.7 0.0 0.00 0.00 0.00 83 1002.0
20260508050951 9 240 17.7 0.0 0.00 0.00 0.00 83 1002.0
20260508045950 10 230 16.1 40.2 0.00 0.00 0.00 83 1002.0
20260508044949 9 230 16.1 40.2 0.00 0.00 0.00 85 1002.0
20260508043948 9 230 16.1 40.2 0.00 0.00 0.00 86 1002.0
20260508042947 9 230 16.1 40.2 0.00 0.00 0.00 88 1001.0
20260508041946 9 230 16.1 40.2 0.00 0.00 0.00 89 1001.0
20260508040945 10 230 16.1 40.2 0.00 0.00 0.00 88 1001.0
20260508035944 10 250 17.7 40.2 0.00 0.00 0.00 89 1001.0
20260508034943 10 250 17.7 40.2 0.00 0.00 0.00 90 1001.0
20260508033942 10 250 17.7 40.2 0.00 0.00 0.00 91 1001.0
20260508032941 10 250 14.5 0.0 0.00 0.00 0.00 90 1001.0
20260508031940 10 250 14.5 0.0 0.00 0.00 0.00 90 1001.0
20260508030939 10 250 14.5 0.0 0.00 0.00 0.00 91 1001.0
20260508025938 10 0 14.5 0.0 0.00 0.00 0.00 90 1001.0
20260508024937 10 0 14.5 0.0 0.00 0.00 0.00 90 1001.0
20260508023937 10 0 14.5 0.0 0.00 0.00 0.00 89 1001.0
20260508022935 10 0 14.5 0.0 0.00 0.00 0.00 89 1001.0
20260508021935 10 0 14.5 0.0 0.00 0.00 0.00 89 1001.0
20260508020934 10 0 14.5 0.0 0.00 0.00 0.00 89 1001.0
20260508015932 11 260 14.5 32.2 0.00 0.00 0.00 90 1001.0
20260508014931 11 260 14.5 32.2 0.00 0.00 0.00 90 1001.0
20260508013930 11 260 14.5 32.2 0.00 0.00 0.00 89 1001.0
20260508012929 11 260 14.5 32.2 0.00 0.00 0.00 89 1001.0
20260508011928 11 260 16.1 37.0 0.00 0.00 0.00 89 1001.0
20260508010927 11 260 16.1 37.0 0.00 0.00 0.00 89 1001.0
20260508005926 11 260 12.9 0.0 0.00 0.00 0.00 86 1001.0
20260508004925 12 260 12.9 0.0 0.00 0.00 0.00 83 1001.0
20260508003924 12 260 12.9 0.0 0.00 0.00 0.00 83 1001.0
20260508002923 12 260 12.9 0.0 0.00 0.00 0.00 81 1001.0
20260508001922 12 260 12.9 0.0 0.00 0.00 0.00 81 1002.0
20260508000921 12 260 12.9 0.0 0.00 0.00 0.00 80 1002.0
20260507235920 12 270 16.1 0.0 0.00 0.00 0.00 81 1002.0
20260507234919 12 270 16.1 0.0 0.00 0.00 0.00 82 1002.0
20260507233918 12 270 16.1 0.0 0.00 0.00 0.00 83 1002.0
20260507232917 12 270 16.1 0.0 0.00 0.00 0.00 83 1001.0
20260507231916 12 270 16.1 0.0 0.00 0.00 0.00 83 1001.0
20260507230914 12 270 16.1 0.0 0.00 0.00 0.00 84 1001.0
20260507225913 12 270 16.1 0.0 0.00 0.00 0.00 83 1001.0
20260507224912 12 270 16.1 0.0 0.00 0.00 0.00 82 1001.0
20260507223911 12 270 16.1 0.0 0.00 0.00 0.00 80 1001.0
20260507222910 12 270 16.1 0.0 0.00 0.00 0.00 79 1000.0
20260507221909 13 270 16.1 0.0 0.00 0.00 0.00 77 1000.0
20260507220908 13 270 16.1 0.0 0.00 0.00 0.00 77 1000.0
20260507215907 13 270 16.1 0.0 0.00 0.00 0.00 75 1000.0
20260507214907 13 270 16.1 0.0 0.00 0.00 0.00 74 1000.0
20260507213906 13 270 16.1 0.0 0.00 0.00 0.00 74 1000.0
20260507212905 13 270 16.1 0.0 0.00 0.00 0.00 74 999.0
20260507211903 13 270 16.1 0.0 0.00 0.00 0.00 73 999.0
20260507210903 13 270 16.1 0.0 0.00 0.00 0.00 74 999.0
20260507205902 13 260 14.5 38.6 0.00 0.00 0.00 72 999.0
20260507204901 13 260 14.5 38.6 0.00 0.00 0.00 72 999.0
20260507203859 14 260 14.5 38.6 0.00 0.00 0.00 71 999.0
20260507202858 14 260 14.5 38.6 0.00 0.00 0.00 70 1001.0
20260507201858 14 260 14.5 38.6 0.00 0.00 0.00 70 1001.0
20260507200856 14 260 14.5 38.6 0.00 0.00 0.00 70 1001.0
20260507195855 14 260 16.1 41.8 0.00 0.00 0.00 70 1001.0
20260507194854 14 260 16.1 41.8 0.00 0.00 0.00 70 1001.0
20260507193853 15 260 16.1 41.8 0.00 0.00 0.00 70 1001.0
20260507192852 15 260 16.1 41.8 0.00 0.00 0.00 70 998.0
20260507191852 15 260 16.1 41.8 0.00 0.00 0.00 70 998.0
20260507190851 15 260 16.1 41.8 0.00 0.00 0.00 70 998.0
20260507185850 15 280 12.9 0.0 0.00 0.00 0.00 72 998.0
20260507184849 15 280 12.9 0.0 0.00 0.00 0.00 72 998.0
20260507183848 15 280 12.9 0.0 0.00 0.00 0.00 73 998.0
20260507182847 15 280 12.9 0.0 0.00 0.00 0.00 73 1001.0
20260507181846 15 280 12.9 0.0 0.00 0.00 0.00 73 1001.0
20260507180845 14 280 12.9 0.0 0.00 0.00 0.00 74 1002.0
20260507175844 14 0 8.0 0.0 0.00 0.00 0.00 74 1002.0
20260507174843 14 0 8.0 0.0 0.00 0.00 0.00 74 1002.0
20260507173842 14 0 8.0 0.0 0.00 0.00 0.00 74 1002.0
20260507172841 14 0 8.0 0.0 0.00 0.00 0.00 74 1003.0
20260507171840 14 0 8.0 0.0 0.00 0.00 0.00 74 1003.0
20260507170839 14 0 8.0 0.0 0.00 0.00 0.00 74 1003.0
20260507165838 15 250 8.0 0.0 0.00 0.00 0.00 75 1003.0
20260507164837 15 250 8.0 0.0 0.00 0.00 0.00 76 1003.0
20260507163834 15 250 8.0 0.0 0.00 0.00 0.00 77 1003.0
20260507162834 15 250 8.0 0.0 0.00 0.00 0.00 77 1002.0
20260507161833 15 250 8.0 0.0 0.00 0.00 0.00 78 1002.0
20260507160832 15 250 8.0 0.0 0.00 0.00 0.00 79 1002.0
20260507155831 15 260 8.0 0.0 0.00 0.00 0.00 80 1002.0
20260507154830 15 260 8.0 0.0 0.00 0.00 0.00 81 1002.0
20260507153829 15 260 8.0 0.0 0.00 0.00 0.00 81 1002.0
20260507152828 15 260 8.0 0.0 0.00 0.00 0.00 81 1002.0
20260507151827 16 260 8.0 0.0 0.00 0.00 0.00 81 1002.0
20260507150826 16 260 8.0 0.0 0.00 0.00 0.00 82 1002.0
20260507145825 16 220 6.4 0.0 0.00 0.00 0.00 83 1002.0